Regional Weather Roundup
Issued by NWS

Home | Current Version | Previous Version | Text Only | Print | Product List | Glossary On
Versions: 1 2 3 4 5 6 7 8 9 10 11 12 13 14 15 16 17 18 19 20 21 22 23 24 25 26 27 28 29 30 31 32 33 34 35 36 37 38 39 40 41 42 43 44 45 46 47 48 49 50
000
ASUS44 KMEG 301410
RWRTN
TENNESSEE HOURLY STATE WEATHER ROUNDUP
NATIONAL WEATHER SERVICE MEMPHIS TN
900 AM CDT SAT JUL 30 2016

TNZ002-004-019-021-049-052-054-088>092-301500-
WEST TENNESSEE

CITY           SKY/WX    TMP DP  RH WIND       PRES   REMARKS
MEMPHIS INTL   CLOUDY    76  72  87 E7        30.01S
NWS MEMPHIS      N/A     72 N/A N/A MISG        N/A
JACKSON        CLOUDY    75  72  90 SW5       30.02R
DYERSBURG      PTSUNNY  N/A N/A N/A MISG        N/A
UNION CITY     PTSUNNY   77  73  88 SW5       29.99R
PARIS          MOSUNNY   73  70  88 SW6       30.01S
LEXINGTON      PTSUNNY   73  70  88 CALM      30.01S
$$

TNZ008-025-027-028-033-062-065-066-301500-
NORTH MIDDLE TENNESSEE

CITY           SKY/WX    TMP DP  RH WIND       PRES   REMARKS
NASHVILLE      CLOUDY    77  71  82 SW5       30.02S
CLARKSVILLE    CLOUDY    75  71  87 W7        30.01R
SMYRNA         CLOUDY    74  72  93 S3        30.03S FOG
COOKEVILLE     CLOUDY    73  72  94 SW5       30.04R
CROSSVILLE     MOSUNNY   74  69  85 VRB5      30.09R
$$

TNZ061-075-076-078-094-096-097-301500-
SOUTH MIDDLE TENNESSEE

CITY           SKY/WX    TMP DP  RH WIND       PRES   REMARKS
TULLAHOMA      SUNNY     79  70  73 VRB3      30.07S
WINCHESTER     SUNNY     79  70  73 CALM      30.06S
MCMINNVILLE    SUNNY     79  73  83 SW7       30.05S
COLUMBIA       CLOUDY   N/A N/A N/A CALM      30.03R
SHELBYVILLE    PTSUNNY   75  73  94 S3        30.05S
$$

TNZ017-018-042-046-047-301500-
NORTHEAST TENNESSEE

CITY           SKY/WX    TMP DP  RH WIND       PRES   REMARKS
TRI CITIES     CLOUDY    71  69  93 SE3       30.08S FOG
$$

TNZ012-013-036-069-073-074-301500-
CENTRAL EAST TENNESSEE

CITY           SKY/WX    TMP DP  RH WIND       PRES   REMARKS
KNOXVILLE      PTSUNNY   76  71  85 CALM      30.05R
OAK RIDGE      CLOUDY    77  71  82 S3        30.05R
GATLINBURG     CLOUDY    73  70  88 VRB3      30.06R
$$

TNZ083-085-099-301500-
SOUTHEAST TENNESSEE

CITY           SKY/WX    TMP DP  RH WIND       PRES   REMARKS
CHATTANOOGA    LGT RAIN  78  71  79 SW5       30.05R
$$

SKY/WX REPORTED AS FAIR MEANS FEW OR NO CLOUDS BELOW
12 THOUSAND FEET.





USA.gov is the U.S. government's official web portal to all federal, state and local government web resources and services.